User: anonymous   Login
Location: Fort Wayne
(41.1310°N, 85.1290°W)
Time: 08:59:27
(UTC-05:00)
Language:

Cosmos 2056 Rocket - Orbit

View from above orbital plane
View from above orbital plane
View from above satellite
View from above satellite

Ground track
Ground track

The orbit data is extracted from the following two-line orbital elements,

1 20433U 90004B   15029.57161416  .00000288  00000-0  10747-3 0  9263
2 20433 074.0373 152.3920 0040046 134.5306 303.2056 14.35772014310384
Epoch (UTC): 29 January 2015 13:43:07
Eccentricity: 0.0040046
inclination: 74.0373°
perigee height: 744 km
apogee height: 801 km
right ascension of ascending node: 152.3920°
argument of perigee: 134.5306°
revolutions per day: 14.35772014
mean anomaly at epoch: 303.2056°
orbit number at epoch: 31038

The dashed part of the orbit path shows where the satellite is in the earth's shadow,  

DLR